Location: Potomac
(46.8816°N, 113.5795°W)
Time: 17:08:13
(UTC+00:00)

UKube-1 - Pass Details

Date: 26 June 2022
Orbit: 608 x 615 km, 98.4° (Epoch: 18 August)

Event Time Altitude Azimuth Distance (km) Brightness Sun altitude
Rises 06:18:59 0° 6° (N) 2,900 ? -17.6°
Reaches altitude 10° 06:21:18 10° 359° (N) 1,989 ? -17.7°
Maximum altitude 06:25:15 37° 292° (WNW) 969 ? -17.9°
Enters shadow 06:28:49 12° 228° (SW) 1,828 ? -18.1°
